Time,TemperatureF,DewpointF,PressureIn,WindDirection,WindDirectionDegrees,WindSpeedMPH,WindSpeedGustMPH,Humidity,HourlyPrecipIn,Conditions,Clouds,dailyrainin,SoftwareType,DateUTC
2017-06-23 00:02:00,76.5,71.7,29.97,SW,226,0.0,1.0,85,0.00,,,0.00,WUHU216DAVISVP2,2017-06-23 04:02:00,
2017-06-23 00:07:00,76.5,71.7,29.97,South,179,0.0,1.0,85,0.00,,,0.00,WUHU216DAVISVP2,2017-06-23 04:07:00,
2017-06-23 00:12:00,76.4,71.6,29.97,South,179,0.0,1.0,85,0.00,,,0.00,WUHU216DAVISVP2,2017-06-23 04:12:00,
2017-06-23 00:17:00,76.3,71.8,29.96,South,179,0.0,1.0,86,0.00,,,0.00,WUHU216DAVISVP2,2017-06-23 04:17:00,
2017-06-23 00:22:00,76.2,72.1,29.96,South,179,0.0,1.0,87,0.00,,,0.00,WUHU216DAVISVP2,2017-06-23 04:22:00,
2017-06-23 00:27:00,75.9,71.8,29.96,South,179,0.0,1.0,87,0.00,,,0.00,WUHU216DAVISVP2,2017-06-23 04:27:00,
2017-06-23 00:32:00,75.6,71.8,29.96,South,179,0.0,0.0,88,0.00,,,0.00,WUHU216DAVISVP2,2017-06-23 04:32:00,
2017-06-23 00:37:00,75.3,71.5,29.96,South,179,0.0,0.0,88,0.00,,,0.00,WUHU216DAVISVP2,2017-06-23 04:37:00,
2017-06-23 00:42:00,75.1,71.3,29.96,South,179,0.0,0.0,88,0.00,,,0.00,WUHU216DAVISVP2,2017-06-23 04:42:00,
2017-06-23 00:47:00,75.0,71.2,29.95,South,179,0.0,0.0,88,0.00,,,0.00,WUHU216DAVISVP2,2017-06-23 04:47:00,
2017-06-23 00:52:00,74.9,71.4,29.95,South,179,0.0,0.0,89,0.00,,,0.00,WUHU216DAVISVP2,2017-06-23 04:52:00,
2017-06-23 00:57:00,74.8,71.3,29.95,South,179,0.0,0.0,89,0.00,,,0.00,WUHU216DAVISVP2,2017-06-23 04:57:00,
2017-06-23 01:02:00,74.8,71.0,29.95,SE,130,0.0,1.0,88,0.00,,,0.00,WUHU216DAVISVP2,2017-06-23 05:02:00,
2017-06-23 01:07:00,74.8,71.0,29.95,SE,130,0.0,1.0,88,0.00,,,0.00,WUHU216DAVISVP2,2017-06-23 05:07:00,
2017-06-23 01:12:00,74.8,71.0,29.95,SW,233,0.0,1.0,88,0.00,,,0.00,WUHU216DAVISVP2,2017-06-23 05:12:00,
2017-06-23 01:17:00,74.8,70.7,29.94,SE,128,0.0,1.0,87,0.00,,,0.00,WUHU216DAVISVP2,2017-06-23 05:17:00,
2017-06-23 01:22:00,74.9,70.8,29.94,SE,129,0.0,1.0,87,0.00,,,0.00,WUHU216DAVISVP2,2017-06-23 05:22:00,
2017-06-23 01:27:00,74.9,71.1,29.94,SE,128,0.0,1.0,88,0.00,,,0.00,WUHU216DAVISVP2,2017-06-23 05:27:00,
2017-06-23 01:32:00,74.7,70.9,29.94,SE,129,0.0,1.0,88,0.00,,,0.00,WUHU216DAVISVP2,2017-06-23 05:32:00,
2017-06-23 01:37:00,74.7,70.9,29.94,SE,128,0.0,0.0,88,0.00,,,0.00,WUHU216DAVISVP2,2017-06-23 05:37:00,
2017-06-23 01:42:00,74.6,70.8,29.93,SE,132,0.0,0.0,88,0.00,,,0.00,WUHU216DAVISVP2,2017-06-23 05:42:00,
2017-06-23 01:47:00,74.6,70.8,29.93,SE,134,0.0,0.0,88,0.00,,,0.00,WUHU216DAVISVP2,2017-06-23 05:47:00,
2017-06-23 01:52:00,74.6,70.8,29.93,SE,141,0.0,1.0,88,0.00,,,0.00,WUHU216DAVISVP2,2017-06-23 05:52:00,
2017-06-23 01:57:00,74.5,70.4,29.93,SE,141,0.0,1.0,87,0.00,,,0.00,WUHU216DAVISVP2,2017-06-23 05:57:00,
2017-06-23 02:02:00,74.6,70.8,29.93,SE,141,0.0,1.0,88,0.00,,,0.00,WUHU216DAVISVP2,2017-06-23 06:02:00,
2017-06-23 02:07:00,74.4,70.6,29.93,SE,141,0.0,1.0,88,0.00,,,0.00,WUHU216DAVISVP2,2017-06-23 06:07:00,
2017-06-23 02:12:00,74.3,70.8,29.93,SE,141,0.0,1.0,89,0.00,,,0.00,WUHU216DAVISVP2,2017-06-23 06:12:00,
2017-06-23 02:17:00,74.2,70.4,29.93,SE,141,0.0,1.0,88,0.00,,,0.00,WUHU216DAVISVP2,2017-06-23 06:17:00,
2017-06-23 02:22:00,74.3,70.5,29.93,SE,141,0.0,1.0,88,0.00,,,0.00,WUHU216DAVISVP2,2017-06-23 06:22:00,
2017-06-23 02:27:00,74.2,70.7,29.92,SE,141,0.0,1.0,89,0.00,,,0.00,WUHU216DAVISVP2,2017-06-23 06:27:00,
2017-06-23 02:32:00,74.2,70.7,29.92,SE,142,0.0,0.0,89,0.00,,,0.00,WUHU216DAVISVP2,2017-06-23 06:32:00,
2017-06-23 02:37:00,74.3,70.8,29.92,SE,141,0.0,1.0,89,0.00,,,0.00,WUHU216DAVISVP2,2017-06-23 06:37:00,
2017-06-23 02:42:00,74.3,70.8,29.92,South,169,0.0,1.0,89,0.00,,,0.00,WUHU216DAVISVP2,2017-06-23 06:42:00,
2017-06-23 02:47:00,74.4,70.9,29.92,South,169,0.0,1.0,89,0.00,,,0.00,WUHU216DAVISVP2,2017-06-23 06:47:00,
2017-06-23 02:52:00,74.4,70.9,29.92,South,169,0.0,1.0,89,0.00,,,0.00,WUHU216DAVISVP2,2017-06-23 06:52:00,
2017-06-23 02:57:00,74.4,70.9,29.92,South,170,0.0,1.0,89,0.00,,,0.00,WUHU216DAVISVP2,2017-06-23 06:57:00,
2017-06-23 03:02:00,74.4,70.9,29.91,South,170,0.0,1.0,89,0.00,,,0.00,WUHU216DAVISVP2,2017-06-23 07:02:00,
2017-06-23 03:07:00,74.4,70.9,29.91,SSE,167,0.0,1.0,89,0.00,,,0.00,WUHU216DAVISVP2,2017-06-23 07:07:00,
2017-06-23 03:12:00,74.4,70.9,29.91,SSE,167,0.0,1.0,89,0.00,,,0.00,WUHU216DAVISVP2,2017-06-23 07:12:00,
2017-06-23 03:17:00,74.4,70.9,29.91,SSE,151,0.0,1.0,89,0.00,,,0.00,WUHU216DAVISVP2,2017-06-23 07:17:00,
2017-06-23 03:22:00,74.3,71.2,29.91,SSW,210,2.0,2.0,90,0.00,,,0.00,WUHU216DAVISVP2,2017-06-23 07:22:00,
2017-06-23 03:27:00,74.3,71.2,29.90,SE,141,0.0,3.0,90,0.00,,,0.00,WUHU216DAVISVP2,2017-06-23 07:27:00,
2017-06-23 03:32:00,74.4,71.3,29.91,South,174,0.0,3.0,90,0.00,,,0.00,WUHU216DAVISVP2,2017-06-23 07:32:00,
2017-06-23 03:37:00,74.4,70.9,29.91,SW,231,0.0,3.0,89,0.00,,,0.00,WUHU216DAVISVP2,2017-06-23 07:37:00,
2017-06-23 03:42:00,74.4,70.9,29.91,South,181,0.0,1.0,89,0.00,,,0.00,WUHU216DAVISVP2,2017-06-23 07:42:00,
2017-06-23 03:47:00,74.5,71.0,29.91,SSE,148,0.0,1.0,89,0.00,,,0.00,WUHU216DAVISVP2,2017-06-23 07:47:00,
2017-06-23 03:48:00,74.5,71.0,29.90,SSE,148,0.0,1.0,89,0.00,,,0.00,WUHU216DAVISVP2,2017-06-23 07:48:00,
2017-06-23 03:53:00,74.5,71.0,29.91,SSW,194,0.0,1.0,89,0.00,,,0.00,WUHU216DAVISVP2,2017-06-23 07:53:00,
2017-06-23 03:58:00,74.6,71.1,29.91,SSW,195,0.0,1.0,89,0.00,,,0.00,WUHU216DAVISVP2,2017-06-23 07:58:00,
2017-06-23 04:03:00,74.8,71.0,29.91,SE,132,1.0,4.0,88,0.00,,,0.00,WUHU216DAVISVP2,2017-06-23 08:03:00,
2017-06-23 04:08:00,75.0,71.2,29.90,NW,325,0.0,4.0,88,0.00,,,0.00,WUHU216DAVISVP2,2017-06-23 08:08:00,
2017-06-23 04:13:00,75.2,71.4,29.91,SSE,165,0.0,4.0,88,0.00,,,0.00,WUHU216DAVISVP2,2017-06-23 08:13:00,
2017-06-23 04:15:00,75.2,71.1,29.91,SE,142,0.0,4.0,87,0.00,,,0.00,WUHU216DAVISVP2,2017-06-23 08:15:00,
2017-06-23 04:20:00,75.3,71.2,29.91,WSW,241,0.0,2.0,87,0.00,,,0.00,WUHU216DAVISVP2,2017-06-23 08:20:00,
2017-06-23 04:25:00,75.3,71.2,29.90,SSE,165,2.0,2.0,87,0.00,,,0.00,WUHU216DAVISVP2,2017-06-23 08:25:00,
2017-06-23 04:30:00,75.3,71.2,29.90,SSE,152,0.0,2.0,87,0.00,,,0.00,WUHU216DAVISVP2,2017-06-23 08:30:00,
2017-06-23 04:35:00,75.2,71.1,29.90,SSE,153,0.0,2.0,87,0.00,,,0.00,WUHU216DAVISVP2,2017-06-23 08:35:00,
2017-06-23 04:40:00,75.2,71.1,29.90,ESE,115,0.0,2.0,87,0.00,,,0.00,WUHU216DAVISVP2,2017-06-23 08:40:00,
2017-06-23 04:45:00,75.1,71.3,29.90,SE,130,0.0,1.0,88,0.00,,,0.00,WUHU216DAVISVP2,2017-06-23 08:45:00,
2017-06-23 04:50:00,75.1,71.3,29.91,SSW,207,0.0,2.0,88,0.00,,,0.00,WUHU216DAVISVP2,2017-06-23 08:50:00,
2017-06-23 04:55:00,75.0,71.2,29.90,SW,215,0.0,2.0,88,0.00,,,0.00,WUHU216DAVISVP2,2017-06-23 08:55:00,
2017-06-23 05:00:00,74.9,71.4,29.90,ESE,111,0.0,2.0,89,0.00,,,0.00,WUHU216DAVISVP2,2017-06-23 09:00:00,
2017-06-23 05:05:00,74.7,71.2,29.90,SSE,152,0.0,2.0,89,0.00,,,0.00,WUHU216DAVISVP2,2017-06-23 09:05:00,
2017-06-23 05:10:00,74.5,71.4,29.91,SSE,152,0.0,2.0,90,0.00,,,0.00,WUHU216DAVISVP2,2017-06-23 09:10:00,
2017-06-23 05:15:00,74.3,71.2,29.91,SSE,151,0.0,1.0,90,0.00,,,0.00,WUHU216DAVISVP2,2017-06-23 09:15:00,
2017-06-23 05:20:00,74.2,71.4,29.91,ESE,117,0.0,1.0,91,0.00,,,0.00,WUHU216DAVISVP2,2017-06-23 09:20:00,
2017-06-23 05:25:00,74.2,71.4,29.91,SSE,152,0.0,3.0,91,0.00,,,0.00,WUHU216DAVISVP2,2017-06-23 09:25:00,
2017-06-23 05:30:00,74.1,71.3,29.91,ESE,120,0.0,3.0,91,0.00,,,0.00,WUHU216DAVISVP2,2017-06-23 09:30:00,
2017-06-23 05:35:00,74.1,71.3,29.91,SE,143,1.0,3.0,91,0.00,,,0.00,WUHU216DAVISVP2,2017-06-23 09:35:00,
2017-06-23 05:40:00,74.1,71.3,29.91,SSE,149,0.0,3.0,91,0.00,,,0.00,WUHU216DAVISVP2,2017-06-23 09:40:00,
2017-06-23 05:45:00,74.1,71.3,29.91,South,169,1.0,4.0,91,0.00,,,0.00,WUHU216DAVISVP2,2017-06-23 09:45:00,
2017-06-23 05:50:00,74.1,71.3,29.92,SE,134,1.0,5.0,91,0.00,,,0.00,WUHU216DAVISVP2,2017-06-23 09:50:00,
2017-06-23 05:55:00,74.2,71.4,29.92,SSE,167,1.0,5.0,91,0.00,,,0.00,WUHU216DAVISVP2,2017-06-23 09:55:00,
2017-06-23 06:00:00,74.1,71.3,29.92,WNW,298,2.0,5.0,91,0.02,,,0.02,WUHU216DAVISVP2,2017-06-23 10:00:00,
2017-06-23 06:05:00,73.8,71.3,29.92,SSE,161,0.0,5.0,92,0.04,,,0.04,WUHU216DAVISVP2,2017-06-23 10:05:00,
2017-06-23 06:10:00,73.5,71.0,29.91,SE,145,0.0,4.0,92,0.05,,,0.06,WUHU216DAVISVP2,2017-06-23 10:10:00,
2017-06-23 06:15:00,73.2,71.0,29.91,SE,145,2.0,3.0,93,0.06,,,0.06,WUHU216DAVISVP2,2017-06-23 10:15:00,
2017-06-23 06:20:00,72.9,70.8,29.91,SE,128,0.0,3.0,93,0.06,,,0.06,WUHU216DAVISVP2,2017-06-23 10:20:00,
2017-06-23 06:25:00,72.9,71.0,29.91,SE,132,0.0,3.0,94,0.06,,,0.06,WUHU216DAVISVP2,2017-06-23 10:25:00,
2017-06-23 06:30:00,72.8,70.9,29.91,SE,133,0.0,3.0,94,0.06,,,0.06,WUHU216DAVISVP2,2017-06-23 10:30:00,
2017-06-23 06:35:00,72.7,70.9,29.91,SE,133,0.0,2.0,94,0.06,,,0.06,WUHU216DAVISVP2,2017-06-23 10:35:00,
2017-06-23 06:40:00,72.7,71.2,29.91,SE,133,0.0,1.0,95,0.06,,,0.06,WUHU216DAVISVP2,2017-06-23 10:40:00,
2017-06-23 06:45:00,72.6,71.1,29.91,SE,132,0.0,1.0,95,0.06,,,0.06,WUHU216DAVISVP2,2017-06-23 10:45:00,
2017-06-23 06:50:00,72.6,71.1,29.91,SE,143,0.0,1.0,95,0.07,,,0.07,WUHU216DAVISVP2,2017-06-23 10:50:00,
2017-06-23 06:55:00,72.6,71.1,29.91,SE,143,0.0,1.0,95,0.07,,,0.07,WUHU216DAVISVP2,2017-06-23 10:55:00,
2017-06-23 07:00:00,72.5,71.0,29.91,SE,144,0.0,1.0,95,0.06,,,0.08,WUHU216DAVISVP2,2017-06-23 11:00:00,
2017-06-23 07:05:00,72.6,71.1,29.91,SE,143,0.0,1.0,95,0.04,,,0.08,WUHU216DAVISVP2,2017-06-23 11:05:00,
2017-06-23 07:10:00,72.6,71.4,29.92,SW,231,0.0,1.0,96,0.02,,,0.08,WUHU216DAVISVP2,2017-06-23 11:10:00,
2017-06-23 07:15:00,72.7,71.5,29.92,SSW,204,0.0,1.0,96,0.07,,,0.13,WUHU216DAVISVP2,2017-06-23 11:15:00,
2017-06-23 07:20:00,72.6,71.4,29.91,SE,136,0.0,1.0,96,0.07,,,0.13,WUHU216DAVISVP2,2017-06-23 11:20:00,
2017-06-23 07:25:00,72.6,71.4,29.91,SE,137,0.0,1.0,96,0.08,,,0.14,WUHU216DAVISVP2,2017-06-23 11:25:00,
2017-06-23 07:30:00,72.6,71.4,29.91,SE,135,0.0,1.0,96,0.08,,,0.14,WUHU216DAVISVP2,2017-06-23 11:30:00,
2017-06-23 07:35:00,72.6,71.4,29.91,SE,135,0.0,1.0,96,0.08,,,0.14,WUHU216DAVISVP2,2017-06-23 11:35:00,
2017-06-23 07:40:00,72.6,71.4,29.90,ESE,118,0.0,2.0,96,0.08,,,0.14,WUHU216DAVISVP2,2017-06-23 11:40:00,
2017-06-23 07:45:00,72.7,71.5,29.90,ESE,102,0.0,3.0,96,0.08,,,0.14,WUHU216DAVISVP2,2017-06-23 11:45:00,
2017-06-23 07:50:00,72.7,71.5,29.90,WSW,256,0.0,3.0,96,0.07,,,0.14,WUHU216DAVISVP2,2017-06-23 11:50:00,
2017-06-23 07:55:00,72.8,71.6,29.90,ESE,120,1.0,3.0,96,0.07,,,0.14,WUHU216DAVISVP2,2017-06-23 11:55:00,
2017-06-23 08:00:00,72.8,71.6,29.90,East,99,1.0,3.0,96,0.06,,,0.14,WUHU216DAVISVP2,2017-06-23 12:00:00,
2017-06-23 08:05:00,72.9,72.0,29.90,ESE,109,0.0,3.0,97,0.06,,,0.14,WUHU216DAVISVP2,2017-06-23 12:05:00,
2017-06-23 08:10:00,73.0,72.1,29.90,NE,51,0.0,3.0,97,0.06,,,0.14,WUHU216DAVISVP2,2017-06-23 12:10:00,
2017-06-23 08:15:00,73.1,72.2,29.90,SW,235,1.0,3.0,97,0.01,,,0.14,WUHU216DAVISVP2,2017-06-23 12:15:00,
2017-06-23 08:20:00,73.3,72.4,29.90,South,184,2.0,3.0,97,0.01,,,0.14,WUHU216DAVISVP2,2017-06-23 12:20:00,
2017-06-23 08:25:00,73.4,72.5,29.90,SE,141,0.0,4.0,97,0.00,,,0.14,WUHU216DAVISVP2,2017-06-23 12:25:00,
2017-06-23 08:30:00,73.6,72.7,29.90,SE,130,2.0,4.0,97,0.00,,,0.14,WUHU216DAVISVP2,2017-06-23 12:30:00,
2017-06-23 08:35:00,73.7,72.8,29.89,ESE,113,1.0,4.0,97,0.00,,,0.14,WUHU216DAVISVP2,2017-06-23 12:35:00,
2017-06-23 08:40:00,73.9,73.0,29.89,East,92,0.0,4.0,97,0.00,,,0.14,WUHU216DAVISVP2,2017-06-23 12:40:00,
2017-06-23 08:45:00,74.0,73.1,29.89,SE,135,1.0,9.0,97,0.00,,,0.14,WUHU216DAVISVP2,2017-06-23 12:45:00,
2017-06-23 08:50:00,74.0,73.1,29.89,SSW,195,0.0,9.0,97,0.00,,,0.14,WUHU216DAVISVP2,2017-06-23 12:50:00,
2017-06-23 08:55:00,74.2,73.3,29.89,SE,136,0.0,9.0,97,0.00,,,0.14,WUHU216DAVISVP2,2017-06-23 12:55:00,
2017-06-23 09:00:00,74.4,73.5,29.89,WSW,253,0.0,9.0,97,0.00,,,0.14,WUHU216DAVISVP2,2017-06-23 13:00:00,
2017-06-23 09:05:00,74.5,73.3,29.89,North,4,1.0,6.0,96,0.00,,,0.14,WUHU216DAVISVP2,2017-06-23 13:05:00,
2017-06-23 09:10:00,74.5,73.3,29.89,East,86,0.0,6.0,96,0.00,,,0.14,WUHU216DAVISVP2,2017-06-23 13:10:00,
2017-06-23 09:15:00,74.5,73.3,29.89,SSE,153,0.0,6.0,96,0.00,,,0.14,WUHU216DAVISVP2,2017-06-23 13:15:00,
2017-06-23 09:20:00,74.7,73.5,29.89,ESE,113,0.0,5.0,96,0.00,,,0.14,WUHU216DAVISVP2,2017-06-23 13:20:00,
2017-06-23 09:25:00,74.9,73.4,29.88,South,179,0.0,5.0,95,0.00,,,0.14,WUHU216DAVISVP2,2017-06-23 13:25:00,
2017-06-23 09:30:00,75.1,73.5,29.88,SSE,149,1.0,7.0,95,0.00,,,0.14,WUHU216DAVISVP2,2017-06-23 13:30:00,
2017-06-23 09:35:00,75.4,73.8,29.88,ESE,110,2.0,8.0,95,0.00,,,0.14,WUHU216DAVISVP2,2017-06-23 13:35:00,
2017-06-23 09:40:00,75.5,73.6,29.88,ESE,109,0.0,8.0,94,0.00,,,0.14,WUHU216DAVISVP2,2017-06-23 13:40:00,
2017-06-23 09:45:00,75.5,73.3,29.87,SSE,165,3.0,8.0,93,0.00,,,0.14,WUHU216DAVISVP2,2017-06-23 13:45:00,
2017-06-23 09:50:00,75.7,73.5,29.88,ESE,116,1.0,8.0,93,0.00,,,0.14,WUHU216DAVISVP2,2017-06-23 13:50:00,
2017-06-23 09:55:00,75.8,73.6,29.88,SW,219,1.0,8.0,93,0.00,,,0.14,WUHU216DAVISVP2,2017-06-23 13:55:00,
2017-06-23 10:00:00,76.1,73.9,29.88,SSW,208,3.0,8.0,93,0.00,,,0.14,WUHU216DAVISVP2,2017-06-23 14:00:00,
2017-06-23 10:05:00,76.3,74.1,29.87,NE,45,0.0,10.0,93,0.00,,,0.14,WUHU216DAVISVP2,2017-06-23 14:05:00,
2017-06-23 10:10:00,76.6,74.1,29.87,East,100,1.0,11.0,92,0.00,,,0.14,WUHU216DAVISVP2,2017-06-23 14:10:00,
2017-06-23 10:15:00,77.0,74.5,29.87,SE,137,2.0,11.0,92,0.00,,,0.14,WUHU216DAVISVP2,2017-06-23 14:15:00,
2017-06-23 10:20:00,77.4,74.2,29.86,ESE,121,1.0,11.0,90,0.00,,,0.14,WUHU216DAVISVP2,2017-06-23 14:20:00,
2017-06-23 10:25:00,78.0,74.8,29.86,West,269,2.0,9.0,90,0.01,,,0.15,WUHU216DAVISVP2,2017-06-23 14:25:00,
2017-06-23 10:30:00,78.7,74.9,29.86,East,85,5.0,9.0,88,0.01,,,0.15,WUHU216DAVISVP2,2017-06-23 14:30:00,
2017-06-23 10:35:00,79.0,75.2,29.86,NNW,328,2.0,9.0,88,0.01,,,0.15,WUHU216DAVISVP2,2017-06-23 14:35:00,
2017-06-23 10:40:00,79.2,74.7,29.86,WSW,238,0.0,9.0,86,0.01,,,0.15,WUHU216DAVISVP2,2017-06-23 14:40:00,
2017-06-23 10:45:00,79.2,74.7,29.86,West,278,0.0,11.0,86,0.01,,,0.15,WUHU216DAVISVP2,2017-06-23 14:45:00,
2017-06-23 10:46:00,79.3,74.8,29.86,SW,225,2.0,11.0,86,0.01,,,0.15,WUHU216DAVISVP2,2017-06-23 14:46:00,
2017-06-23 10:51:00,79.4,74.9,29.86,North,1,1.0,11.0,86,0.01,,,0.15,WUHU216DAVISVP2,2017-06-23 14:51:00,
2017-06-23 10:56:00,79.5,74.6,29.86,WSW,256,6.0,11.0,85,0.01,,,0.15,WUHU216DAVISVP2,2017-06-23 14:56:00,
2017-06-23 11:01:00,79.7,75.2,29.86,SW,235,1.0,11.0,86,0.01,,,0.15,WUHU216DAVISVP2,2017-06-23 15:01:00,
2017-06-23 11:06:00,79.8,74.6,29.85,ESE,110,2.0,8.0,84,0.01,,,0.15,WUHU216DAVISVP2,2017-06-23 15:06:00,
2017-06-23 11:11:00,80.3,75.4,29.85,ESE,123,2.0,8.0,85,0.01,,,0.15,WUHU216DAVISVP2,2017-06-23 15:11:00,
2017-06-23 11:16:00,81.0,75.4,29.85,SW,219,3.0,8.0,83,0.01,,,0.15,WUHU216DAVISVP2,2017-06-23 15:16:00,
2017-06-23 11:21:00,81.4,75.5,29.85,SSE,164,0.0,11.0,82,0.01,,,0.15,WUHU216DAVISVP2,2017-06-23 15:21:00,
2017-06-23 11:26:00,82.1,76.1,29.85,WSW,239,4.0,11.0,82,0.00,,,0.15,WUHU216DAVISVP2,2017-06-23 15:26:00,
2017-06-23 11:31:00,82.4,76.1,29.85,WNW,302,1.0,11.0,81,0.00,,,0.15,WUHU216DAVISVP2,2017-06-23 15:31:00,
2017-06-23 11:36:00,83.2,76.9,29.85,ENE,72,0.0,11.0,81,0.00,,,0.15,WUHU216DAVISVP2,2017-06-23 15:36:00,
2017-06-23 11:41:00,83.5,76.8,29.85,East,95,0.0,11.0,80,0.00,,,0.15,WUHU216DAVISVP2,2017-06-23 15:41:00,
2017-06-23 11:46:00,83.9,77.6,29.84,SW,214,1.0,11.0,81,0.00,,,0.15,WUHU216DAVISVP2,2017-06-23 15:46:00,
2017-06-23 11:51:00,84.6,77.5,29.84,West,278,3.0,10.0,79,0.00,,,0.15,WUHU216DAVISVP2,2017-06-23 15:51:00,
2017-06-23 11:56:00,85.2,78.1,29.84,SW,214,1.0,10.0,79,0.00,,,0.15,WUHU216DAVISVP2,2017-06-23 15:56:00,
2017-06-23 12:01:00,85.5,77.6,29.84,ENE,70,0.0,9.0,77,0.00,,,0.15,WUHU216DAVISVP2,2017-06-23 16:01:00,
2017-06-23 12:06:00,85.2,77.2,29.84,SSE,157,3.0,12.0,77,0.00,,,0.00,WUHU216DAVISVP2,2017-06-23 16:06:00,
2017-06-23 12:07:00,85.1,77.1,29.84,ESE,103,8.0,12.0,77,0.00,,,0.00,WUHU216DAVISVP2,2017-06-23 16:07:00,
2017-06-23 12:45:00,83.3,77.0,29.83,SSW,197,3.0,11.0,81,0.00,,,0.00,WUHU216DAVISVP2,2017-06-23 16:45:00,
2017-06-23 12:50:00,83.8,77.1,29.83,ESE,117,3.0,9.0,80,0.00,,,0.00,WUHU216DAVISVP2,2017-06-23 16:50:00,
2017-06-23 12:55:00,83.9,76.8,29.83,ENE,65,0.0,9.0,79,0.00,,,0.00,WUHU216DAVISVP2,2017-06-23 16:55:00,
2017-06-23 13:00:00,84.3,77.2,29.83,SW,217,5.0,10.0,79,0.00,,,0.00,WUHU216DAVISVP2,2017-06-23 17:00:00,
2017-06-23 13:05:00,84.6,77.4,29.83,SW,226,1.0,10.0,79,0.00,,,0.00,WUHU216DAVISVP2,2017-06-23 17:05:00,
2017-06-23 13:10:00,84.8,77.6,29.82,ESE,117,1.0,9.0,79,0.00,,,0.00,WUHU216DAVISVP2,2017-06-23 17:10:00,
2017-06-23 13:15:00,84.7,77.6,29.82,ENE,61,3.0,9.0,79,0.00,,,0.00,WUHU216DAVISVP2,2017-06-23 17:15:00,
2017-06-23 13:20:00,84.9,78.2,29.82,ESE,115,2.0,8.0,80,0.00,,,0.00,WUHU216DAVISVP2,2017-06-23 17:20:00,
2017-06-23 13:25:00,85.4,78.3,29.82,ESE,117,2.0,7.0,79,0.00,,,0.00,WUHU216DAVISVP2,2017-06-23 17:25:00,
2017-06-23 13:30:00,85.6,77.7,29.82,SW,236,1.0,8.0,77,0.00,,,0.00,WUHU216DAVISVP2,2017-06-23 17:30:00,
2017-06-23 13:35:00,86.0,78.5,29.82,SE,129,0.0,9.0,78,0.00,,,0.00,WUHU216DAVISVP2,2017-06-23 17:35:00,
2017-06-23 13:40:00,86.4,78.5,29.81,SW,218,1.0,9.0,77,0.00,,,0.00,WUHU216DAVISVP2,2017-06-23 17:40:00,
2017-06-23 13:45:00,86.9,79.0,29.81,WSW,238,2.0,9.0,77,0.00,,,0.00,WUHU216DAVISVP2,2017-06-23 17:45:00,
2017-06-23 13:50:00,87.7,79.4,29.81,ENE,75,1.0,9.0,76,0.00,,,0.00,WUHU216DAVISVP2,2017-06-23 17:50:00,
2017-06-23 13:55:00,88.0,79.1,29.81,East,101,2.0,7.0,75,0.00,,,0.00,WUHU216DAVISVP2,2017-06-23 17:55:00,
2017-06-23 14:00:00,87.7,78.0,29.81,East,101,5.0,8.0,73,0.00,,,0.00,WUHU216DAVISVP2,2017-06-23 18:00:00,
2017-06-23 14:05:00,87.6,78.3,29.81,SW,218,1.0,8.0,74,0.00,,,0.00,WUHU216DAVISVP2,2017-06-23 18:05:00,
2017-06-23 14:10:00,87.8,78.3,29.81,ESE,103,5.0,8.0,73,0.00,,,0.00,WUHU216DAVISVP2,2017-06-23 18:10:00,
2017-06-23 14:15:00,87.6,78.5,29.81,SSW,210,5.0,8.0,74,0.00,,,0.00,WUHU216DAVISVP2,2017-06-23 18:15:00,
2017-06-23 14:20:00,87.6,78.1,29.80,SW,218,3.0,7.0,73,0.00,,,0.00,WUHU216DAVISVP2,2017-06-23 18:20:00,
2017-06-23 14:25:00,87.8,77.9,29.81,SE,136,1.0,12.0,72,0.00,,,0.00,WUHU216DAVISVP2,2017-06-23 18:25:00,
2017-06-23 14:30:00,88.4,79.3,29.80,SW,232,1.0,12.0,74,0.00,,,0.00,WUHU216DAVISVP2,2017-06-23 18:30:00,
2017-06-23 14:35:00,89.0,78.2,29.80,NW,304,2.0,12.0,70,0.00,,,0.00,WUHU216DAVISVP2,2017-06-23 18:35:00,
2017-06-23 14:40:00,89.2,78.8,29.80,West,273,4.0,12.0,71,0.00,,,0.00,WUHU216DAVISVP2,2017-06-23 18:40:00,
2017-06-23 14:45:00,89.4,78.6,29.79,SSW,194,2.0,10.0,70,0.00,,,0.00,WUHU216DAVISVP2,2017-06-23 18:45:00,
2017-06-23 14:50:00,89.3,78.9,29.80,West,280,0.0,10.0,71,0.00,,,0.00,WUHU216DAVISVP2,2017-06-23 18:50:00,
2017-06-23 14:55:00,89.6,78.8,29.79,SSE,148,2.0,10.0,70,0.00,,,0.00,WUHU216DAVISVP2,2017-06-23 18:55:00,
2017-06-23 15:00:00,89.5,79.5,29.79,SW,231,4.0,7.0,72,0.00,,,0.00,WUHU216DAVISVP2,2017-06-23 19:00:00,
2017-06-23 15:05:00,89.4,79.4,29.79,WSW,242,0.0,7.0,72,0.00,,,0.00,WUHU216DAVISVP2,2017-06-23 19:05:00,
2017-06-23 15:15:00,88.9,78.1,29.79,WSW,251,1.0,10.0,70,0.00,,,0.00,WUHU216DAVISVP2,2017-06-23 19:15:00,
2017-06-23 15:20:00,89.0,78.2,29.79,East,91,4.0,10.0,70,0.00,,,0.00,WUHU216DAVISVP2,2017-06-23 19:20:00,
2017-06-23 15:25:00,88.8,78.0,29.79,West,264,2.0,10.0,70,0.00,,,0.00,WUHU216DAVISVP2,2017-06-23 19:25:00,
2017-06-23 15:30:00,88.8,77.6,29.79,West,270,2.0,10.0,69,0.00,,,0.00,WUHU216DAVISVP2,2017-06-23 19:30:00,
2017-06-23 15:35:00,88.9,78.1,29.78,WSW,246,3.0,9.0,70,0.00,,,0.00,WUHU216DAVISVP2,2017-06-23 19:35:00,
2017-06-23 15:40:00,88.6,77.8,29.78,SW,225,1.0,10.0,70,0.00,,,0.00,WUHU216DAVISVP2,2017-06-23 19:40:00,
2017-06-23 15:45:00,88.8,77.6,29.79,South,173,2.0,10.0,69,0.00,,,0.00,WUHU216DAVISVP2,2017-06-23 19:45:00,
2017-06-23 15:50:00,89.0,78.6,29.78,WNW,284,1.0,9.0,71,0.00,,,0.00,WUHU216DAVISVP2,2017-06-23 19:50:00,
2017-06-23 15:55:00,89.2,78.0,29.78,SSE,158,2.0,9.0,69,0.00,,,0.00,WUHU216DAVISVP2,2017-06-23 19:55:00,
2017-06-23 16:00:00,89.3,77.6,29.78,WNW,283,3.0,11.0,68,0.00,,,0.00,WUHU216DAVISVP2,2017-06-23 20:00:00,
2017-06-23 16:05:00,89.6,77.5,29.78,WSW,238,5.0,13.0,67,0.00,,,0.00,WUHU216DAVISVP2,2017-06-23 20:05:00,
2017-06-23 16:06:00,89.5,77.8,29.78,ENE,74,5.0,13.0,68,0.00,,,0.00,WUHU216DAVISVP2,2017-06-23 20:06:00,
2017-06-23 16:11:00,89.4,77.3,29.78,SW,221,1.0,13.0,67,0.00,,,0.00,WUHU216DAVISVP2,2017-06-23 20:11:00,
2017-06-23 16:16:00,89.8,78.1,29.78,WSW,246,3.0,12.0,68,0.00,,,0.00,WUHU216DAVISVP2,2017-06-23 20:16:00,
2017-06-23 16:21:00,90.0,78.3,29.77,NNW,328,0.0,12.0,68,0.00,,,0.00,WUHU216DAVISVP2,2017-06-23 20:21:00,
2017-06-23 16:26:00,90.4,78.2,29.77,WSW,239,2.0,10.0,67,0.00,,,0.00,WUHU216DAVISVP2,2017-06-23 20:26:00,
2017-06-23 16:31:00,90.4,77.8,29.77,WSW,250,3.0,9.0,66,0.00,,,0.00,WUHU216DAVISVP2,2017-06-23 20:31:00,
2017-06-23 16:36:00,90.3,77.7,29.77,SE,132,2.0,10.0,66,0.00,,,0.00,WUHU216DAVISVP2,2017-06-23 20:36:00,
2017-06-23 16:41:00,90.0,78.3,29.76,West,263,4.0,10.0,68,0.00,,,0.00,WUHU216DAVISVP2,2017-06-23 20:41:00,
2017-06-23 16:46:00,89.8,77.7,29.76,West,259,3.0,11.0,67,0.00,,,0.00,WUHU216DAVISVP2,2017-06-23 20:46:00,
2017-06-23 16:51:00,89.8,78.1,29.76,East,79,0.0,11.0,68,0.00,,,0.00,WUHU216DAVISVP2,2017-06-23 20:51:00,
2017-06-23 16:56:00,90.0,77.9,29.76,East,90,4.0,11.0,67,0.00,,,0.00,WUHU216DAVISVP2,2017-06-23 20:56:00,
2017-06-23 17:01:00,89.9,77.8,29.76,SW,222,1.0,11.0,67,0.00,,,0.00,WUHU216DAVISVP2,2017-06-23 21:01:00,
2017-06-23 17:06:00,89.7,77.6,29.75,SW,235,3.0,11.0,67,0.00,,,0.00,WUHU216DAVISVP2,2017-06-23 21:06:00,
2017-06-23 17:11:00,89.6,77.9,29.75,SW,235,0.0,10.0,68,0.00,,,0.00,WUHU216DAVISVP2,2017-06-23 21:11:00,
2017-06-23 17:17:00,90.0,77.9,29.75,ESE,115,5.0,10.0,67,0.00,,,0.00,WUHU216DAVISVP2,2017-06-23 21:17:00,
2017-06-23 17:22:00,89.9,77.8,29.74,SW,219,2.0,13.0,67,0.00,,,0.00,WUHU216DAVISVP2,2017-06-23 21:22:00,
2017-06-23 17:27:00,90.3,78.6,29.74,ESE,108,2.0,13.0,68,0.00,,,0.00,WUHU216DAVISVP2,2017-06-23 21:27:00,
2017-06-23 17:32:00,90.3,79.0,29.74,WSW,257,1.0,12.0,69,0.00,,,0.00,WUHU216DAVISVP2,2017-06-23 21:32:00,
2017-06-23 17:37:00,90.0,78.3,29.74,West,272,3.0,12.0,68,0.00,,,0.00,WUHU216DAVISVP2,2017-06-23 21:37:00,
2017-06-23 17:42:00,90.2,78.5,29.74,SSW,203,1.0,8.0,68,0.00,,,0.00,WUHU216DAVISVP2,2017-06-23 21:42:00,
2017-06-23 17:47:00,90.2,78.5,29.74,ENE,74,2.0,8.0,68,0.00,,,0.00,WUHU216DAVISVP2,2017-06-23 21:47:00,
2017-06-23 17:52:00,90.1,78.8,29.74,WSW,253,1.0,8.0,69,0.00,,,0.00,WUHU216DAVISVP2,2017-06-23 21:52:00,
2017-06-23 17:57:00,90.2,77.1,29.73,SW,229,4.0,8.0,65,0.00,,,0.00,WUHU216DAVISVP2,2017-06-23 21:57:00,
2017-06-23 18:02:00,90.2,77.6,29.74,West,268,3.0,8.0,66,0.00,,,0.00,WUHU216DAVISVP2,2017-06-23 22:02:00,
2017-06-23 18:07:00,90.2,77.6,29.73,NE,49,1.0,10.0,66,0.00,,,0.00,WUHU216DAVISVP2,2017-06-23 22:07:00,
2017-06-23 18:12:00,90.3,77.7,29.73,SSE,166,2.0,10.0,66,0.00,,,0.00,WUHU216DAVISVP2,2017-06-23 22:12:00,
2017-06-23 18:17:00,90.1,77.1,29.73,NW,316,0.0,9.0,65,0.00,,,0.00,WUHU216DAVISVP2,2017-06-23 22:17:00,
2017-06-23 18:22:00,90.0,76.5,29.74,South,175,3.0,9.0,64,0.00,,,0.00,WUHU216DAVISVP2,2017-06-23 22:22:00,
2017-06-23 18:27:00,90.2,76.7,29.74,SSW,203,0.0,9.0,64,0.00,,,0.00,WUHU216DAVISVP2,2017-06-23 22:27:00,
2017-06-23 18:32:00,90.3,77.2,29.74,East,98,3.0,9.0,65,0.00,,,0.00,WUHU216DAVISVP2,2017-06-23 22:32:00,
2017-06-23 18:37:00,90.1,77.5,29.73,SE,135,1.0,8.0,66,0.00,,,0.00,WUHU216DAVISVP2,2017-06-23 22:37:00,
2017-06-23 18:42:00,90.1,77.1,29.73,SSW,209,1.0,5.0,65,0.00,,,0.00,WUHU216DAVISVP2,2017-06-23 22:42:00,
2017-06-23 18:47:00,90.0,77.4,29.73,SSW,195,2.0,8.0,66,0.00,,,0.00,WUHU216DAVISVP2,2017-06-23 22:47:00,
2017-06-23 18:52:00,89.7,77.1,29.73,WSW,250,2.0,8.0,66,0.00,,,0.00,WUHU216DAVISVP2,2017-06-23 22:52:00,
2017-06-23 18:57:00,89.7,77.1,29.73,SE,132,2.0,7.0,66,0.00,,,0.00,WUHU216DAVISVP2,2017-06-23 22:57:00,
2017-06-23 19:02:00,89.6,77.0,29.73,SE,125,1.0,7.0,66,0.00,,,0.00,WUHU216DAVISVP2,2017-06-23 23:02:00,
2017-06-23 19:07:00,89.3,76.7,29.73,WSW,255,0.0,6.0,66,0.00,,,0.00,WUHU216DAVISVP2,2017-06-23 23:07:00,
2017-06-23 19:12:00,89.1,76.6,29.73,SSE,160,0.0,6.0,66,0.00,,,0.00,WUHU216DAVISVP2,2017-06-23 23:12:00,
2017-06-23 19:17:00,88.8,76.7,29.74,ESE,118,0.0,5.0,67,0.00,,,0.00,WUHU216DAVISVP2,2017-06-23 23:17:00,
2017-06-23 19:22:00,88.4,76.3,29.73,ESE,120,0.0,5.0,67,0.00,,,0.00,WUHU216DAVISVP2,2017-06-23 23:22:00,
2017-06-23 19:27:00,87.6,76.0,29.73,SSE,165,2.0,5.0,68,0.00,,,0.00,WUHU216DAVISVP2,2017-06-23 23:27:00,
2017-06-23 19:32:00,87.1,75.5,29.73,SW,222,0.0,5.0,68,0.00,,,0.00,WUHU216DAVISVP2,2017-06-23 23:32:00,
2017-06-23 19:37:00,86.7,75.6,29.73,SE,134,1.0,4.0,69,0.00,,,0.00,WUHU216DAVISVP2,2017-06-23 23:37:00,
2017-06-23 19:42:00,86.3,76.0,29.73,SE,131,0.0,4.0,71,0.00,,,0.00,WUHU216DAVISVP2,2017-06-23 23:42:00,
2017-06-23 19:47:00,85.8,75.6,29.73,SE,126,0.0,4.0,71,0.00,,,0.00,WUHU216DAVISVP2,2017-06-23 23:47:00,
2017-06-23 20:09:00,85.3,75.9,29.73,SE,145,0.0,4.0,73,0.00,,,0.00,WUHU216DAVISVP2,2017-06-24 00:09:00,
2017-06-23 20:14:00,85.1,75.7,29.73,ESE,115,0.0,4.0,73,0.00,,,0.00,WUHU216DAVISVP2,2017-06-24 00:14:00,
2017-06-23 20:19:00,84.9,75.5,29.73,East,79,0.0,3.0,73,0.00,,,0.00,WUHU216DAVISVP2,2017-06-24 00:19:00,
2017-06-23 20:24:00,84.7,75.7,29.73,SSE,162,1.0,3.0,74,0.00,,,0.00,WUHU216DAVISVP2,2017-06-24 00:24:00,
2017-06-23 20:29:00,84.5,75.5,29.73,ESE,113,0.0,3.0,74,0.00,,,0.00,WUHU216DAVISVP2,2017-06-24 00:29:00,
2017-06-23 20:34:00,84.5,75.5,29.73,East,92,0.0,4.0,74,0.00,,,0.00,WUHU216DAVISVP2,2017-06-24 00:34:00,
2017-06-23 20:39:00,84.3,75.7,29.73,SW,235,0.0,4.0,75,0.00,,,0.00,WUHU216DAVISVP2,2017-06-24 00:39:00,
2017-06-23 20:44:00,84.1,75.5,29.73,SE,146,0.0,3.0,75,0.00,,,0.00,WUHU216DAVISVP2,2017-06-24 00:44:00,
2017-06-23 20:49:00,83.9,75.3,29.73,South,175,0.0,3.0,75,0.00,,,0.00,WUHU216DAVISVP2,2017-06-24 00:49:00,
2017-06-23 20:54:00,83.8,75.0,29.73,ESE,115,0.0,2.0,75,0.00,,,0.00,WUHU216DAVISVP2,2017-06-24 00:54:00,
2017-06-23 20:59:00,83.7,74.9,29.73,ESE,120,0.0,5.0,75,0.00,,,0.00,WUHU216DAVISVP2,2017-06-24 00:59:00,
2017-06-23 21:04:00,83.7,74.9,29.73,ESE,121,1.0,5.0,75,0.00,,,0.00,WUHU216DAVISVP2,2017-06-24 01:04:00,
2017-06-23 21:09:00,83.6,75.2,29.73,ESE,110,1.0,4.0,76,0.00,,,0.00,WUHU216DAVISVP2,2017-06-24 01:09:00,
2017-06-23 21:14:00,83.5,74.9,29.73,ESE,115,0.0,4.0,75,0.00,,,0.00,WUHU216DAVISVP2,2017-06-24 01:14:00,
2017-06-23 21:19:00,83.5,74.9,29.74,South,176,0.0,4.0,75,0.00,,,0.00,WUHU216DAVISVP2,2017-06-24 01:19:00,
2017-06-23 21:24:00,83.4,74.8,29.74,SE,133,2.0,7.0,75,0.00,,,0.00,WUHU216DAVISVP2,2017-06-24 01:24:00,